SCP
2 2 3 3 4 3 2 1 2 1 1 1 1 2 2 2 2 2 2 2 2 2 1 2 2 2 2 3 3 3 3 2 1 1 1 1 1 1 1 1 0 0 1
2 2 2 2 3 2 2 1 1 1 1 1 1 2 2 2 2 1 2 2 2 2 2 2 2 2 2 2 3 3 3 2 2 1 1 1 1 1 1 1 1 1 1
2 2 1 1 1 1 1 1 1 1 1 1 1 1 1 2 2 1 1 1 1 1 2 2 2 2 2 2 3 3 3 2 2 1 1 1 1 0 0 0 1 1 1
2 1 1 1 1 1 1 1 1 1 1 1 1 1 2 2 1 1 1 1 1 1 1 1 1 2 2 2 2 3 3 3 2 2 2 1 1 0 0 0 0 1 1
1 1 1 1 1 1 1 1 1 1 1 1 1 1 1 1 1 1 1 1 1 2 1 1 1 1 1 2 2 2 3 3 2 2 2 1 1 1 0 0 0 0 0
1 1 1 1 1 1 1 1 1 1 1 1 1 1 1 1 1 1 2 2 2 1 1 1 1 1 1 1 2 2 2 3 2 2 2 2 1 1 1 0 0 0 0
1 1 1 1 1 1 1 1 0 0 0 0 0 0 1 1 1 1 1 1 1 1 1 1 1 1 1 1 1 2 2 2 2 2 2 1 1 0 0 0 0 0 0
2 2 2 1 1 1 1 0 0 0 0 0 0 0 0 0 1 1 1 1 1 0 0 0 0 0 0 1 1 1 1 2 2 1 1 1 0 0 0 0 0 0 0
3 2 2 1 1 0 0 0 0 0 0 0 0 0 0 0 1 1 1 0 0 0 0 0 0 0 0 1 1 1 1 1 1 1 0 0 0 0 0 0 0 0 0
2 2 1 0 0 0 0 0 0 0 0 0 0 0 0 0 1 1 1 0 0 0 0 0 0 0 0 0 0 0 0 0 0 0 0 0 0 0 0 0 0 0 0
1 1 1 0 0 0 0 0 0 0 0 0 0 0 0 0 0 0 0 0 0 0 0 0 0 0 0 0 0 0 0 0 0 0 0 0 0 0 0 0 0 0 0
1 1 0 0 0 0 0 0 0 0 0 0 0 0 0 0 0 0 0 0 0 0 0 0 0 0 0 0 0 0 0 0 0 0 0 0 0 0 0 0 0 0 0
0 0 0 0 0 0 0 0 0 0 0 0 0 0 0 0 0 0 0 0 0 0 0 0 0 0 0 0 0 0 0 0 0 0 0 0 0 0 0 0 0 0 0
0 0 0 0 0 0 0 0 0 0 0 0 0 0 0 0 0 0 0 0 0 0 0 0 0 0 0 0 0 0 0 0 0 0 0 0 0 0 0 0 0 0 0
0 0 0 0 0 0 0 0 0 0 0 0 0 0 0 0 0 0 0 0 0 0 0 0 0 0 0 0 0 0 0 0 0 0 0 0 0 0 0 0 0 0 0
0 0 0 0 0 0 0 0 0 0 0 0 0 0 0 0 0 0 0 0 0 0 0 0 0 0 0 0 0 0 0 0 0 0 0 0 0 0 0 0 0 0 0
0 0 0 0 0 0 0 0 0 0 0 0 0 0 0 0 0 0 0 0 0 0 0 0 0 0 0 0 0 0 0 0 0 0 0 0 0 0 0 0 0 0 0
0 0 0 0 0 0 0 0 0 0 0 0 0 0 0 0 0 0 0 0 0 0 0 0 0 0 0 0 0 0 0 0 0 0 0 0 0 0 0 0 0 0 0
0 0 0 0 0 0 0 0 0 0 0 0 0 0 0 0 0 0 0 0 0 0 0 0 0 0 0 0 0 0 0 0 0 0 0 0 0 0 0 0 0 0 0
0 0 0 0 0 0 0 0 0 0 0 0 0 0 0 0 0 0 0 0 0 0 0 0 0 0 0 0 0 0 0 0 0 0 0 0 0 0 0 0 0 0 0
0 0 0 0 0 0 0 0 0 0 0 0 0 0 0 0 0 0 0 0 0 0 0 0 0 0 0 0 0 0 0 0 0 0 0 0 0 0 0 0 0 0 0
0 0 0 0 0 0 0 0 0 0 0 0 0 0 0 0 0 0 0 0 0 0 0 0 0 0 0 0 0 0 0 0 0 0 0 0 0 0 0 0 0 0 0
0 0 0 0 0 0 0 0 0 0 0 0 0 0 0 0 0 0 0 0 0 0 0 0 0 0 0 0 0 0 0 0 0 0 0 0 0 0 0 0 0 0 0
0 0 0 0 0 0 0 0 0 0 0 0 0 0 0 0 0 0 0 0 0 0 0 0 0 0 0 0 0 0 0 0 0 0 0 0 0 0 0 0 0 0 0
0 0 0 0 0 0 0 0 0 0 0 0 0 0 0 0 0 0 0 0 0 0 0 0 0 0 0 0 0 0 0 0 0 0 0 0 0 0 0 0 0 0 0
0 0 0 0 0 0 0 0 0 0 0 0 0 0 0 0 0 0 0 0 0 0 0 0 0 0 0 0 0 0 0 0 0 0 0 0 0 0 0 0 0 0 0
Wind_Speed
8 7 6 6 5 5 4 4 4 3 2 1 2 2 3 2 2 3 3 3 3 3 2 2 1 1 0 1 1 1 2 2 2 1 0 1 1 0 0 1 2 2 2
9 8 6 6 6 6 5 5 4 4 4 3 1 2 3 2 2 2 3 4 4 4 3 3 2 2 1 0 0 1 1 1 1 2 1 1 1 1 1 1 1 2 2
12 9 7 7 7 7 6 5 6 6 6 5 3 4 3 3 3 3 3 4 4 4 3 3 2 2 1 0 1 1 2 1 1 2 2 2 3 1 1 2 2 2 3
11 9 8 7 7 6 6 6 7 7 7 6 5 5 4 3 2 2 2 4 4 4 4 3 3 3 2 2 1 0 1 2 1 1 1 2 3 3 1 1 2 3 4
11 9 8 8 7 6 6 6 7 8 7 7 6 6 5 3 2 3 4 4 4 5 5 4 4 3 2 2 2 1 0 1 1 1 1 1 1 2 2 2 1 3 3
11 10 9 8 8 7 7 6 7 8 8 8 7 6 6 5 5 4 4 3 3 4 5 5 4 4 3 3 2 1 1 0 1 1 1 1 2 2 2 3 3 3 2
11 10 9 9 8 7 7 6 7 7 7 7 7 6 6 5 5 4 3 3 3 3 5 4 4 3 3 3 2 2 2 1 1 0 0 1 1 1 2 4 4 3 2
10 10 9 8 7 7 6 6 6 6 6 6 6 5 5 4 4 4 3 3 2 2 4 4 4 5 4 4 3 2 2 2 2 2 1 1 1 2 2 3 5 4 3
11 11 10 8 7 7 6 5 5 5 5 5 5 5 5 5 4 4 4 2 2 3 4 4 5 5 5 4 4 3 3 3 3 3 3 3 2 2 2 3 3 5 5
11 11 9 8 7 6 5 5 5 4 4 5 4 4 4 5 4 4 5 4 4 4 5 5 5 5 5 5 4 4 3 4 4 3 4 4 3 3 3 3 3 3 4
11 10 9 8 7 6 5 4 4 4 4 4 4 5 5 5 5 5 4 4 4 5 5 5 5 6 6 6 6 6 6 6 5 5 5 5 4 4 3 3 4 4 4
10 10 9 8 7 5 5 4 4 4 3 3 4 4 4 5 5 5 5 5 6 5 5 6 6 7 7 6 6 7 7 6 7 6 6 6 5 6 4 4 5 5 4
10 10 8 7 6 5 4 4 3 3 3 4 4 4 5 5 5 5 5 6 6 6 7 7 7 7 7 7 7 7 7 7 7 7 7 6 6 6 5 5 5 5 6
10 9 8 7 6 5 4 4 3 3 3 4 4 4 4 4 4 5 5 6 6 7 7 7 7 7 7 7 7 7 8 8 8 8 8 7 6 5 5 5 5 6 7
11 10 8 7 6 5 4 4 3 3 3 4 4 4 4 4 5 5 6 6 6 7 7 7 8 7 7 6 7 7 8 8 8 8 8 8 10 10 7 6 5 6 6
11 10 9 8 7 6 4 3 3 3 3 4 3 3 4 4 5 5 5 6 6 6 7 8 7 8 7 9 11 8 7 7 8 7 7 8 9 11 12 12 9 7 7
11 10 9 8 7 6 5 4 3 3 3 3 3 4 4 4 4 5 6 6 5 6 7 7 7 7 9 12 12 11 7 7 7 6 6 7 8 8 7 10 12 10 9
10 9 8 7 5 4 4 3 3 3 3 4 4 4 4 5 5 5 5 5 4 5 5 6 6 7 9 11 12 12 9 8 7 7 6 7 6 6 7 8 8 7 6
9 8 8 7 6 5 5 4 3 3 4 4 4 4 4 5 5 5 4 3 4 5 4 4 6 7 7 10 10 9 6 6 7 7 7 7 6 8 10 8 7 7 5
8 8 7 7 6 5 5 5 4 4 4 4 4 4 4 4 4 4 3 3 3 4 4 5 5 6 6 8 9 7 4 5 4 5 6 8 8 8 9 6 6 5 3
8 8 8 7 5 5 5 5 5 4 3 4 4 4 4 4 4 3 3 3 3 4 4 5 5 5 6 7 9 8 4 4 4 4 4 4 8 9 8 6 4 2 1
8 8 7 6 5 5 6 5 4 3 4 4 5 4 3 3 4 4 3 3 3 4 3 4 4 4 5 7 7 10 8 5 4 3 2 2 6 7 6 4 4 5 5
8 7 7 6 4 4 5 6 4 4 4 4 4 4 4 4 3 3 3 2 2 2 2 2 2 3 4 5 9 10 9 8 4 2 3 4 6 6 5 5 5 4 3
7 7 7 7 5 4 5 5 4 4 5 5 4 4 4 4 4 3 2 2 2 2 2 2 2 2 2 3 4 4 4 6 5 4 5 6 6 5 4 4 4 3 2
6 6 7 6 6 5 5 5 5 5 5 4 3 4 4 4 4 3 3 2 1 2 3 3 3 2 1 1 1 2 2 2 2 3 3 4 4 3 3 3 3 2 2
7 7 7 7 6 6 5 4 4 5 5 3 3 2 3 3 3 3 3 4 2 2 3 4 4 2 2 1 2 3 3 3 3 3 2 2 2 1 1 1 1 2 1
Wind_Direction
118 111 102 99 86 69 60 37 23 17 35 62 87 97 86 76 64 56 48 38 35 34 36 21 4 14 196 225 201 181 170 183 153 132 120 358 23 41 137 161 155 158 156
114 104 96 86 83 73 61 49 34 31 31 32 54 89 100 87 81 59 45 39 39 34 33 28 16 3 6 21 113 158 175 201 170 159 161 206 353 13 33 57 119 123 106
124 115 99 82 73 63 52 53 39 33 29 29 54 74 72 67 49 40 34 25 29 39 40 33 22 9 22 341 283 193 167 198 232 193 176 178 200 158 33 44 71 85 84
119 114 103 88 79 69 56 51 43 37 30 34 59 74 80 77 56 48 44 27 29 31 29 30 27 19 14 359 329 286 208 183 218 251 233 201 157 158 155 52 51 66 67
122 116 107 97 82 68 60 51 47 41 34 39 50 68 73 72 62 58 48 34 24 25 26 26 24 18 6 1 359 3 352 182 192 216 231 206 174 150 155 158 113 67 53
126 117 106 95 80 66 57 50 51 44 36 42 47 61 72 72 70 58 46 29 16 17 21 22 20 15 7 2 357 6 24 39 172 231 222 188 178 175 162 154 134 105 61
128 119 110 99 88 75 64 55 54 46 38 44 47 50 59 66 70 66 56 42 25 18 10 14 15 9 1 358 4 25 23 21 70 48 289 264 218 148 141 133 128 115 91
125 118 111 104 96 86 74 66 58 49 40 45 42 41 47 58 61 54 53 47 32 17 7 13 17 17 13 13 19 32 30 36 46 41 28 42 55 94 123 137 138 125 96
123 118 113 106 99 91 81 77 71 59 45 44 47 43 45 56 60 50 45 42 28 25 22 21 20 18 19 18 26 38 34 40 42 42 45 55 60 71 81 106 132 137 135
122 118 114 109 103 97 89 77 76 70 52 44 46 53 44 49 54 53 45 38 26 25 27 26 25 26 27 26 34 39 40 51 45 51 58 55 55 64 71 89 81 94 121
128 123 118 113 109 103 95 86 77 69 58 50 49 49 42 41 45 45 41 40 37 34 34 34 35 38 36 34 42 46 49 55 52 53 62 59 58 67 63 68 76 81 98
125 122 120 116 112 108 100 91 82 76 68 60 57 50 43 46 47 43 39 44 44 40 44 45 42 43 42 39 46 51 49 55 57 53 58 57 64 64 65 74 81 85 86
124 121 118 117 116 112 104 94 91 89 78 72 67 55 48 51 51 48 45 46 48 46 47 50 46 41 39 41 46 55 56 55 56 55 58 56 67 67 67 73 79 86 92
133 128 122 121 118 111 108 106 97 91 84 78 71 59 50 52 55 54 51 48 50 53 51 49 44 39 40 40 46 57 58 57 54 52 54 54 61 69 75 80 83 94 96
141 136 132 129 123 115 112 112 101 89 90 87 77 65 58 58 59 57 56 53 53 57 54 52 43 35 39 41 52 59 64 61 57 51 51 54 61 65 72 89 91 97 98
146 142 139 138 136 133 132 122 109 102 101 97 88 80 71 65 63 61 60 59 55 53 55 51 49 44 40 48 60 66 62 62 62 57 51 54 53 60 68 78 84 100 114
151 147 145 142 141 142 142 137 130 120 105 100 94 89 81 74 66 71 66 62 58 59 56 50 50 47 37 50 64 67 67 63 58 55 53 58 52 56 67 69 69 69 85
147 143 140 137 135 133 134 129 125 116 107 102 99 97 91 84 75 72 68 62 60 62 59 50 47 50 40 51 69 72 65 61 55 53 59 65 52 56 74 74 64 57 57
144 142 141 137 133 134 136 125 117 112 109 108 107 104 103 97 86 79 73 67 68 61 56 52 48 50 34 47 73 80 69 62 50 46 49 61 62 64 78 78 70 56 38
130 132 130 125 130 139 133 118 111 107 113 119 118 111 110 104 96 89 81 73 78 71 64 54 43 47 40 45 67 83 80 68 51 39 37 48 66 68 75 82 83 70 31
128 128 128 131 141 142 128 117 116 121 124 119 113 107 105 107 100 84 76 81 76 67 59 54 38 36 35 42 58 70 81 86 68 47 27 24 50 64 69 77 82 91 79
125 128 129 133 137 137 130 123 129 136 119 113 109 106 103 101 95 86 74 76 84 77 60 55 38 21 22 37 52 65 72 84 82 52 7 6 38 49 51 55 63 73 71
133 132 133 133 134 140 138 137 145 131 114 109 109 106 93 78 80 88 83 69 73 86 83 78 59 21 14 25 46 57 62 64 68 24 8 18 29 34 32 34 45 58 67
137 137 136 135 137 138 136 142 141 126 116 115 114 108 100 85 70 67 70 79 81 98 111 112 99 44 21 16 14 25 35 35 31 13 6 18 27 32 23 19 29 41 72
140 142 144 145 147 141 136 140 135 125 118 116 113 112 109 106 88 69 55 81 81 183 155 160 155 136 91 322 18 60 35 13 357 7 19 23 20 16 11 11 12 21 38
143 141 143 144 146 142 141 143 141 135 129 121 120 125 126 119 113 106 63 33 45 48 113 149 152 158 174 161 57 42 26 11 18 55 34 11 9 2 356 9 359 3 12